Precipitable_Water
1.13 1.08 1.07 1.07 1.09 1.10 1.09 1.08 1.10 1.10 1.11 1.14 1.12 1.15 1.17 1.22 1.29 1.30 1.31 1.32 1.34 1.37 1.41 1.44 1.47 1.33 1.15 1.15 1.29 1.43 1.55 1.46 1.46 1.43 1.37 1.38 1.40 1.37 1.32 1.25 1.15 1.03
1.10 1.10 1.11 1.12 1.11 1.13 1.12 1.12 1.11 1.12 1.13 1.15 1.17 1.20 1.23 1.26 1.29 1.31 1.31 1.32 1.35 1.37 1.44 1.46 1.46 1.39 1.24 1.18 1.30 1.40 1.44 1.51 1.48 1.45 1.36 1.38 1.38 1.34 1.28 1.22 1.12 1.02
1.10 1.10 1.10 1.09 1.09 1.09 1.10 1.13 1.13 1.15 1.15 1.18 1.22 1.24 1.25 1.30 1.30 1.35 1.37 1.38 1.38 1.39 1.42 1.46 1.46 1.43 1.37 1.31 1.37 1.43 1.44 1.51 1.46 1.44 1.42 1.40 1.37 1.29 1.23 1.20 1.11 0.98
1.09 1.10 1.11 1.12 1.11 1.09 1.11 1.11 1.12 1.15 1.17 1.17 1.20 1.28 1.32 1.34 1.35 1.34 1.34 1.38 1.40 1.40 1.40 1.44 1.45 1.44 1.47 1.50 1.53 1.50 1.49 1.49 1.47 1.44 1.42 1.41 1.36 1.27 1.22 1.20 1.10 0.98
1.10 1.12 1.13 1.13 1.12 1.11 1.11 1.09 1.09 1.13 1.15 1.19 1.28 1.32 1.35 1.34 1.32 1.30 1.36 1.38 1.39 1.41 1.46 1.50 1.52 1.48 1.47 1.44 1.49 1.45 1.44 1.45 1.44 1.41 1.40 1.39 1.35 1.29 1.25 1.21 1.10 0.95
1.15 1.15 1.14 1.12 1.10 1.08 1.06 1.06 1.10 1.12 1.16 1.21 1.27 1.34 1.38 1.44 1.32 1.31 1.39 1.42 1.40 1.40 1.43 1.39 1.33 1.39 1.44 1.46 1.46 1.44 1.40 1.40 1.44 1.42 1.38 1.38 1.35 1.33 1.30 1.23 1.11 0.95
1.13 1.14 1.13 1.13 1.10 1.10 1.08 1.08 1.10 1.13 1.17 1.25 1.32 1.33 1.38 1.31 1.32 1.36 1.36 1.40 1.39 1.41 1.36 1.37 1.41 1.39 1.40 1.42 1.45 1.41 1.37 1.35 1.38 1.41 1.33 1.35 1.36 1.33 1.30 1.23 1.11 0.95
1.15 1.18 1.17 1.14 1.10 1.10 1.09 1.09 1.09 1.11 1.18 1.24 1.28 1.34 1.32 1.31 1.33 1.37 1.39 1.39 1.36 1.37 1.37 1.33 1.39 1.36 1.36 1.38 1.39 1.39 1.35 1.36 1.35 1.35 1.34 1.35 1.39 1.34 1.28 1.22 1.11 0.93
1.18 1.17 1.16 1.13 1.10 1.10 1.09 1.08 1.08 1.11 1.20 1.23 1.28 1.33 1.36 1.38 1.45 1.40 1.39 1.37 1.37 1.38 1.37 1.34 1.34 1.35 1.36 1.35 1.35 1.36 1.33 1.34 1.37 1.35 1.32 1.32 1.33 1.31 1.25 1.18 1.07 0.91
1.16 1.16 1.14 1.12 1.09 1.11 1.10 1.09 1.09 1.12 1.19 1.24 1.29 1.37 1.31 1.37 1.35 1.33 1.31 1.33 1.37 1.42 1.39 1.39 1.41 1.41 1.40 1.38 1.36 1.35 1.37 1.37 1.40 1.40 1.37 1.33 1.31 1.30 1.24 1.15 1.04 0.89
1.13 1.14 1.12 1.11 1.10 1.12 1.10 1.08 1.09 1.12 1.17 1.22 1.26 1.22 1.27 1.32 1.36 1.36 1.36 1.38 1.40 1.40 1.40 1.42 1.47 1.47 1.46 1.45 1.44 1.45 1.43 1.42 1.43 1.43 1.38 1.35 1.33 1.30 1.25 1.15 1.03 0.90
1.12 1.13 1.11 1.11 1.11 1.11 1.08 1.08 1.08 1.11 1.15 1.20 1.22 1.22 1.31 1.37 1.35 1.36 1.38 1.40 1.41 1.43 1.44 1.41 1.49 1.52 1.49 1.48 1.47 1.44 1.42 1.41 1.40 1.38 1.40 1.35 1.34 1.29 1.25 1.16 1.05 0.94
1.10 1.11 1.12 1.11 1.11 1.10 1.09 1.06 1.07 1.10 1.14 1.16 1.22 1.29 1.33 1.30 1.32 1.35 1.40 1.40 1.39 1.40 1.39 1.40 1.46 1.50 1.55 1.52 1.48 1.46 1.44 1.43 1.39 1.41 1.36 1.36 1.32 1.28 1.24 1.18 1.08 0.98
1.09 1.12 1.11 1.11 1.12 1.10 1.05 1.04 1.05 1.08 1.13 1.18 1.25 1.31 1.33 1.32 1.31 1.35 1.37 1.36 1.36 1.37 1.37 1.38 1.41 1.45 1.51 1.53 1.50 1.47 1.44 1.45 1.45 1.38 1.32 1.29 1.28 1.27 1.24 1.19 1.11 1.02
1.10 1.10 1.11 1.11 1.09 1.05 1.01 1.01 1.04 1.08 1.14 1.20 1.26 1.32 1.32 1.31 1.33 1.34 1.32 1.30 1.32 1.32 1.31 1.33 1.33 1.38 1.45 1.50 1.49 1.46 1.49 1.45 1.39 1.35 1.32 1.26 1.23 1.22 1.22 1.18 1.13 1.05
1.06 1.05 1.06 1.07 1.03 1.00 1.00 1.01 1.04 1.09 1.15 1.22 1.27 1.30 1.30 1.30 1.33 1.34 1.31 1.28 1.26 1.25 1.25 1.26 1.29 1.36 1.42 1.46 1.48 1.46 1.43 1.42 1.34 1.34 1.30 1.26 1.22 1.19 1.19 1.19 1.14 1.08
1.02 1.00 1.01 1.00 1.02 1.02 1.00 0.99 1.01 1.05 1.13 1.23 1.27 1.26 1.23 1.25 1.29 1.28 1.25 1.23 1.22 1.20 1.18 1.19 1.23 1.34 1.41 1.40 1.42 1.46 1.45 1.42 1.35 1.30 1.27 1.24 1.22 1.19 1.17 1.15 1.14 1.09
1.02 1.00 0.99 1.02 1.03 0.99 0.97 1.00 1.04 1.06 1.18 1.27 1.26 1.22 1.23 1.24 1.21 1.22 1.21 1.21 1.22 1.21 1.16 1.15 1.19 1.29 1.33 1.36 1.39 1.32 1.32 1.32 1.28 1.24 1.23 1.23 1.21 1.18 1.17 1.16 1.14 1.10
1.04 1.00 1.00 1.03 1.03 0.98 0.95 1.05 1.01 1.13 1.27 1.29 1.22 1.22 1.20 1.16 1.18 1.19 1.18 1.21 1.20 1.16 1.15 1.17 1.19 1.25 1.28 1.30 1.28 1.26 1.23 1.22 1.22 1.22 1.22 1.21 1.20 1.17 1.14 1.11 1.09 1.06
1.11 1.07 1.01 1.01 1.01 0.97 0.93 0.93 1.03 1.20 1.30 1.28 1.24 1.21 1.16 1.15 1.16 1.15 1.17 1.18 1.18 1.16 1.16 1.18 1.18 1.21 1.21 1.23 1.22 1.23 1.22 1.20 1.18 1.19 1.19 1.18 1.16 1.14 1.10 1.07 1.06 1.03
1.17 1.12 1.09 1.08 1.07 1.06 0.95 0.97 1.14 1.27 1.29 1.27 1.22 1.16 1.13 1.13 1.14 1.12 1.13 1.14 1.16 1.17 1.14 1.13 1.16 1.19 1.19 1.18 1.16 1.16 1.18 1.18 1.15 1.14 1.12 1.11 1.11 1.09 1.07 1.05 1.02 0.99
1.16 1.11 1.07 1.05 1.04 1.01 0.94 1.04 1.19 1.25 1.23 1.20 1.15 1.13 1.16 1.18 1.16 1.14 1.11 1.11 1.15 1.15 1.12 1.10 1.14 1.16 1.20 1.20 1.18 1.16 1.16 1.15 1.11 1.08 1.05 1.03 1.02 1.01 1.01 1.00 0.99 0.95
1.10 1.04 0.95 0.90 0.90 0.88 0.97 1.11 1.21 1.23 1.20 1.16 1.08 1.10 1.12 1.13 1.12 1.10 1.11 1.11 1.11 1.12 1.11 1.11 1.14 1.14 1.15 1.19 1.21 1.19 1.15 1.11 1.09 1.04 1.01 0.99 0.97 0.97 0.97 0.98 0.97 0.95
0.99 0.93 0.87 0.84 0.83 0.91 1.06 1.20 1.26 1.26 1.16 1.12 1.07 1.09 1.11 1.12 1.11 1.09 1.10 1.11 1.10 1.10 1.11 1.10 1.12 1.15 1.14 1.16 1.18 1.18 1.18 1.13 1.09 1.06 1.03 1.01 0.99 0.99 0.99 0.99 0.99 0.97
0.93 0.90 0.86 0.87 0.94 1.08 1.18 1.23 1.25 1.21 1.16 1.16 1.16 1.15 1.12 1.13 1.11 1.07 1.07 1.09 1.11 1.10 1.12 1.11 1.12 1.14 1.16 1.16 1.16 1.16 1.16 1.13 1.10 1.07 1.03 1.03 1.03 1.02 1.02 1.01 1.02 1.01
0.91 0.88 0.88 1.00 1.13 1.18 1.23 1.26 1.26 1.20 1.18 1.18 1.14 1.12 1.10 1.09 1.09 1.07 1.06 1.06 1.07 1.07 1.08 1.09 1.10 1.12 1.15 1.16 1.16 1.17 1.16 1.12 1.09 1.05 1.04 1.04 1.03 1.00 0.98 0.98 0.99 0.99
Wind_Speed
19 18 17 16 15 15 15 15 16 16 16 16 16 16 16 16 17 17 18 18 18 19 18 18 18 18 19 19 20 21 20 19 19 18 18 17 17 16 16 15 15 15
20 19 17 16 15 15 15 15 16 16 16 16 16 16 17 17 17 17 17 18 19 19 19 19 19 19 19 19 19 20 20 19 19 18 18 17 17 16 16 16 15 15
20 19 18 17 16 15 15 15 15 16 16 16 16 17 17 17 17 17 17 18 18 19 19 19 19 19 19 19 19 20 20 20 19 19 18 17 17 16 16 16 16 15
20 19 18 17 16 15 15 15 15 16 16 16 16 17 17 16 16 17 17 17 18 19 19 18 18 20 20 19 19 19 20 20 20 19 18 17 17 17 16 16 15 15
21 19 18 17 16 16 15 15 15 16 16 16 16 17 17 15 15 16 16 17 18 18 18 17 17 19 19 19 18 18 19 20 20 20 19 17 17 17 17 16 16 15
21 19 18 17 17 16 15 15 16 16 16 16 17 17 16 14 15 16 16 17 17 18 18 16 16 17 19 19 18 18 18 20 20 20 19 18 17 17 17 16 16 15
21 19 18 17 17 16 16 15 16 16 16 16 17 16 15 14 15 16 16 17 17 17 18 17 16 17 17 18 18 17 18 19 20 20 19 19 18 17 17 16 15 15
21 20 19 18 17 17 16 16 16 16 16 16 16 16 15 15 16 16 16 17 17 17 18 17 17 17 17 17 17 17 18 19 19 20 20 19 19 18 17 16 15 15
21 20 19 19 18 17 16 16 16 16 16 16 16 15 15 16 16 16 16 17 17 17 17 17 17 17 17 18 18 18 18 19 19 20 20 20 20 19 18 16 16 16
21 20 20 19 18 17 16 16 16 16 16 16 16 15 15 16 16 16 16 16 16 17 16 16 17 17 17 18 19 19 19 19 19 20 20 21 20 19 18 17 16 16
21 21 20 19 18 17 16 16 16 16 15 15 15 15 15 15 15 16 16 16 16 17 17 17 17 17 17 18 19 20 19 19 19 19 20 20 20 20 18 17 16 16
21 21 20 19 18 17 16 16 16 16 15 15 15 16 16 15 15 16 16 16 16 17 18 18 17 18 18 18 18 19 19 19 19 19 19 20 20 20 19 18 17 16
21 21 20 19 18 17 16 16 16 15 15 15 15 15 15 15 15 15 15 16 16 17 17 17 17 17 17 17 17 17 18 19 19 19 19 20 20 20 20 18 17 16
21 21 20 19 18 17 17 16 16 16 15 15 15 15 15 15 15 15 15 15 15 15 15 15 15 15 15 15 16 16 16 17 17 18 19 20 20 20 20 18 17 16
21 20 20 19 18 17 17 16 16 16 15 15 15 15 15 15 14 14 14 13 13 13 14 13 13 13 12 12 13 14 15 16 17 18 19 18 18 19 19 18 17 17
21 20 20 19 18 18 17 17 16 15 15 14 14 15 14 14 13 13 13 13 13 13 13 12 12 11 10 10 11 12 14 15 16 16 16 16 17 17 18 18 18 17
21 20 20 20 19 18 17 17 16 15 15 14 14 14 14 13 13 13 13 13 12 12 12 12 11 10 9 9 9 10 11 12 13 13 13 14 15 15 16 17 18 18
21 21 20 20 19 19 18 17 16 15 15 14 14 14 13 13 13 13 12 12 12 11 11 11 10 9 8 8 7 7 8 10 11 11 12 12 13 13 13 14 15 16
21 21 20 20 19 19 18 17 16 16 15 14 14 14 13 13 13 12 12 12 12 11 10 10 9 8 7 6 6 7 8 9 11 11 11 11 11 11 11 12 13 14
21 21 20 19 19 18 18 17 17 16 15 14 14 14 14 13 12 12 12 12 11 11 10 10 9 7 6 6 7 7 8 8 9 10 10 10 10 10 11 12 12 13
21 21 20 19 19 19 18 17 17 16 15 14 15 14 14 13 12 12 12 11 11 11 10 10 9 7 7 7 7 7 7 7 8 9 10 11 10 11 11 12 12 13
20 20 20 19 20 19 18 17 17 16 15 15 15 14 13 13 12 12 11 11 11 10 10 10 9 8 8 7 7 7 7 7 7 7 9 11 11 11 11 12 13 13
21 20 20 19 20 20 19 18 17 16 16 15 15 14 13 13 12 12 11 11 11 10 10 10 9 9 8 8 8 8 8 8 8 8 9 10 11 12 12 13 13 14
21 20 20 20 20 20 19 18 17 16 16 15 14 14 14 13 13 12 11 11 11 11 11 10 10 10 10 9 9 9 8 9 9 9 10 10 12 13 13 14 14 14
21 20 20 20 20 20 18 17 17 17 16 16 15 15 14 14 13 12 11 11 11 11 10 10 10 10 10 10 10 10 9 10 10 11 11 12 13 14 14 15 15 16
20 20 20 20 20 19 18 17 17 17 17 16 15 15 14 14 12 11 11 11 12 11 10 10 10 10 11 11 11 11 11 11 11 12 12 13 13 15 15 16 17 17
Wind_Direction
218 220 224 228 233 239 243 247 249 249 251 255 257 260 262 265 267 269 270 270 268 267 265 260 256 254 253 252 253 252 250 248 247 247 248 249 249 247 244 243 245 246
218 221 225 229 235 241 247 250 250 250 253 256 259 263 265 267 269 272 273 273 271 268 265 261 258 256 254 251 251 252 250 246 245 246 248 248 245 243 242 242 244 245
219 222 226 231 236 243 248 251 252 252 254 257 260 264 266 269 271 274 276 274 272 270 266 262 259 257 254 251 251 250 247 243 242 243 246 247 243 242 242 244 244 244
220 224 228 233 238 245 249 251 252 253 255 257 260 264 267 271 274 276 278 276 274 271 267 264 263 260 258 255 253 251 247 244 241 240 242 244 242 240 242 244 243 243
221 225 230 234 240 245 248 251 252 254 256 258 262 266 268 272 276 277 278 278 278 277 274 272 269 265 263 262 259 256 250 244 240 237 238 240 239 240 242 244 243 243
222 226 230 235 241 245 249 251 253 254 256 259 264 269 271 273 277 278 278 281 282 283 282 279 273 269 267 264 261 257 251 243 238 237 236 236 238 240 242 244 244 242
223 227 230 236 241 246 249 252 253 255 257 261 267 272 276 277 279 280 282 283 284 284 282 278 274 271 268 264 259 254 248 242 239 238 237 236 237 239 242 244 243 242
224 227 231 237 242 246 250 252 254 256 258 263 268 274 279 280 280 283 285 285 286 286 283 280 276 273 268 263 257 251 245 242 240 239 237 237 237 239 242 243 242 242
224 228 233 238 242 246 249 252 254 256 260 265 269 274 279 279 280 284 287 288 289 287 285 282 278 273 267 262 257 250 244 242 241 238 236 236 236 239 241 242 242 242
225 229 234 238 242 245 248 252 255 257 261 265 270 275 279 279 281 285 289 291 290 287 285 283 279 275 269 263 258 251 245 241 240 239 237 236 235 237 238 241 243 242
227 231 235 238 241 244 247 251 254 258 261 264 270 276 279 280 282 286 290 291 291 289 285 282 280 277 272 265 259 252 245 241 240 240 239 237 235 234 235 240 243 242
228 232 235 238 240 243 246 250 254 258 261 264 271 276 279 280 283 286 290 291 292 292 290 287 284 279 273 265 258 251 244 241 241 241 238 236 234 232 234 240 244 244
229 232 235 238 240 242 245 250 254 257 260 265 271 276 278 280 283 287 291 293 294 295 296 295 290 283 274 264 256 250 244 242 243 240 237 237 236 232 233 240 246 245
230 232 235 237 239 242 245 249 253 255 259 264 271 275 278 281 284 288 292 295 297 299 301 301 296 288 277 264 254 247 243 243 242 238 238 241 238 231 230 238 245 245
230 232 235 237 239 241 244 249 252 254 258 264 270 274 277 281 284 287 290 294 298 301 304 305 301 294 283 265 250 243 244 246 243 240 240 239 234 228 229 236 243 245
230 232 234 236 237 240 244 247 249 253 258 263 268 272 276 280 283 287 290 293 296 299 304 307 304 297 288 270 253 248 249 247 244 241 238 232 228 228 233 237 241 243
230 232 234 235 236 239 243 245 247 251 256 261 266 269 272 277 280 284 287 289 292 297 302 306 305 297 288 275 262 257 253 244 240 239 234 229 229 234 238 241 242 244
231 232 234 235 236 239 241 243 245 249 252 257 263 265 267 273 276 279 282 284 288 294 299 304 304 295 287 278 263 257 254 246 242 243 238 232 230 233 236 239 241 245
231 233 234 235 236 238 240 241 243 246 250 255 260 262 265 270 272 275 277 279 283 291 296 300 301 294 284 274 261 258 260 253 248 246 239 228 223 228 234 238 243 249
230 232 233 234 235 236 239 241 241 243 249 255 257 260 263 266 269 271 273 275 279 285 290 293 294 286 274 267 264 264 263 255 247 242 234 225 226 235 242 246 251 256
230 231 232 233 233 234 237 240 241 244 248 253 256 259 262 264 267 269 270 272 275 279 284 287 284 274 263 263 266 265 258 251 248 241 232 228 233 242 248 253 257 261
230 230 232 233 232 233 235 237 239 244 249 252 254 257 260 263 265 266 267 268 271 274 279 282 278 268 261 260 262 261 257 254 252 247 240 237 237 242 250 257 260 263
230 230 232 233 231 231 233 235 239 244 248 250 251 253 257 261 263 264 265 266 268 271 275 278 274 265 260 259 258 258 259 257 255 254 252 247 243 244 252 258 261 263
230 232 233 231 230 230 232 235 239 244 246 247 248 250 255 258 259 261 264 266 268 270 272 274 271 262 256 257 258 258 258 257 256 256 256 253 248 248 254 259 261 262
231 232 231 230 228 228 231 235 239 241 242 244 245 249 253 254 255 258 261 264 268 270 269 269 269 262 256 254 255 256 258 258 257 256 255 254 252 251 254 258 261 263
229 229 228 227 226 227 232 236 237 237 238 240 244 248 250 250 252 255 258 261 265 268 266 265 267 265 260 256 255 256 258 259 259 257 255 255 254 253 255 258 261 264